[[{"header":{"parameterUnit":"m.s-1","parameterCategory":1,"la1":30.2991,"la2":30.254,"lo1":-89.0895,"lo2":-89.0444,"dy":0.0017,"dx":0.0017,"nx":28,"ny":28,"refTime":"2025-09-01T09:00:00:Z","depth":0,"parameterNumber":2,"parameterNumberName":"U-component_of_WINDS"},"data":[0,0,0,0,0,0,0,0,0,0,0,0,0,0,0,0,0,0,0,0,0,0,0,0,0,0,0,0,0,0,0,0,0,0,0,0,0,0,0,0,0,0,0,0,0,0,0,0,0,0,0,0,0,0,0,0,0,0,-3.6106,-3.6105,0,-3.6059,-3.6059,-3.6058,-3.5901,-3.5897,-3.5894,-3.589,-3.5846,-3.5848,-3.585,0,0,0,0,0,0,0,0,0,0,0,0,0,-3.6063,-3.6064,-3.6106,-3.6105,-3.6105,-3.6059,-3.6059,-3.6058,-3.5901,-3.5897,-3.5893,-3.5889,-3.5845,-3.5847,-3.585,0,0,0,0,0,0,0,0,0,0,0,0,0,-3.6055,-3.6065,-3.6106,-3.6021,-3.6013,-3.6059,-3.6059,-3.6058,-3.5902,-3.5897,-3.5892,-3.5887,-3.5844,-3.5847,-3.585,-3.5976,0,0,-3.586,-3.5861,0,0,0,0,0,0,0,0,-3.6056,-3.6057,-3.6034,-3.6027,-3.6018,-3.598,-3.6027,-3.603,-3.5904,-3.5944,-3.589,-3.5884,-3.5895,-3.5894,-3.5896,-3.5974,-3.5972,-3.586,-3.5862,-3.5863,-3.5864,0,0,0,0,0,0,0,-3.6057,-3.6058,-3.6087,-3.6034,-3.6024,-3.5986,-3.5979,-3.6027,-3.595,-3.594,-3.5929,-3.5925,-3.5889,-3.5894,-3.5894,-3.5971,-3.586,-3.5863,-3.5865,-3.5866,-3.6149,-3.6155,0,0,0,0,0,0,-3.6069,-3.606,-3.6089,-3.6086,-3.6024,-3.5991,-3.5984,-3.5998,-3.5949,-3.5936,-3.593,-3.5918,-3.5891,-3.5891,-3.5892,-3.6035,-3.5863,-3.5866,-3.5868,-3.6144,-3.615,-3.6157,0,0,0,0,0,0,-3.6069,-3.6073,-3.6091,-3.607,-3.6069,-3.5998,-3.6015,-3.6,-3.6004,-3.5941,-3.5927,-3.5948,-3.5887,-3.5888,-3.5956,-3.6031,-3.5868,-3.5871,-3.6137,-3.6146,-3.6154,-3.6323,0,0,0,0,0,0,-3.6068,-3.6074,-3.612,-3.6072,-3.6071,-3.6155,-3.602,-3.6003,-3.6009,-3.5993,-3.5954,-3.5943,-3.5883,-3.5952,-3.5959,-3.6033,-3.5873,-3.613,-3.6141,-3.6151,-3.631,-3.6336,-3.6359,0,0,0,0,0,-3.6067,-3.617,-3.6123,-3.6127,-3.6127,-3.6159,-3.6159,-3.6086,-3.6016,-3.6062,-3.6022,-3.5944,-3.6023,-3.596,-3.5967,-3.6043,-3.6125,-3.6138,-3.615,-3.63,-3.6331,-3.6358,0,0,0,0,0,0,-3.623,-3.6162,-3.6109,-3.62,-3.6187,-3.6133,-3.6188,-3.6122,-3.6129,-3.6114,-3.6025,-3.6018,-3.6099,-3.6078,-3.601,-3.6162,-3.6061,-3.6075,-3.6172,-3.6202,-3.6225,-3.6228,-3.5876,0,0,0,0,0,-3.6276,-3.6307,-3.6247,-3.6333,-3.6329,-3.6261,-3.6272,-3.6218,-3.6201,-3.6194,-3.6159,-3.6147,-3.6168,-3.6184,-3.62,-3.6308,-3.6297,-3.6363,-3.6387,-3.6407,-3.642,-3.6475,-3.6504,-3.6198,-3.6198,-3.6198,0,0,-3.6372,-3.6339,-3.6365,-3.6365,-3.6348,-3.6383,-3.6257,-3.6299,-3.6324,-3.6201,-3.6262,-3.6237,-3.6217,-3.6305,-3.6342,-3.629,-3.6503,-3.6423,-3.644,-3.6442,-3.6491,-3.652,-3.6546,-3.6207,-3.6205,-3.6204,0,0,-3.6565,-3.6544,-3.6612,-3.6598,-3.6574,-3.6528,-3.6545,-3.6502,-3.6479,-3.654,-3.6448,-3.6478,-3.6517,-3.6506,-3.6506,-3.6697,-3.6625,-3.6705,-3.683,-3.6884,-3.6908,-3.6929,-3.6996,-3.7022,-3.6719,-3.6719,-3.6719,0,-3.6687,-3.6735,-3.6656,-3.6704,-3.6707,-3.6597,-3.6666,-3.6657,-3.664,-3.6645,-3.6587,-3.6634,-3.6613,-3.6697,-3.6743,-3.6747,-3.6764,-3.6708,-3.6911,-3.6931,-3.695,-3.7013,-3.7038,-3.6729,-3.6728,-3.6727,-3.6726,0,-3.6887,-3.6922,-3.698,-3.6966,-3.6976,-3.7035,-3.6965,-3.6985,-3.6931,-3.6892,-3.6955,-3.6927,-3.6935,-3.6951,-3.6899,-3.7029,-3.6997,-3.6927,-3.6823,-3.699,-3.7047,-3.7071,-3.6743,-3.6739,-3.6736,-3.6734,0,0,-3.7178,-3.712,-3.7143,-3.7135,-3.7101,-3.7127,-3.7182,-3.7189,-3.7208,-3.7201,-3.7244,-3.7281,-3.7216,-3.7216,-3.7162,-3.721,-3.7362,-3.7133,-3.7131,-3.7176,-3.7503,-3.7555,-3.7584,-3.7315,-3.732,-3.7323,-3.7504,0,-3.736,-3.7447,-3.7379,-3.748,-3.7511,-3.7408,-3.7455,-3.7441,-3.7406,-3.7429,-3.7391,-3.7418,-3.733,-3.7329,-3.7373,-3.7334,-3.7426,-3.7321,-3.7355,-3.7357,-3.7361,-3.7614,-3.7669,-3.784,-3.7526,-3.753,-3.7533,0,-3.7582,-3.7584,-3.7688,-3.7648,-3.7659,-3.7702,-3.7704,-3.7727,-3.7709,-3.768,-3.7682,-3.7615,-3.7666,-3.7567,-3.7637,-3.7567,-3.7577,-3.7561,-3.7566,-3.7565,-3.7454,-3.7619,-3.7893,-3.7919,-3.7567,-3.7565,-3.7562,0,-3.7783,-3.7812,-3.7878,-3.7875,-3.783,-3.7863,-3.7846,-3.7822,-3.7831,-3.7834,-3.7839,-3.7848,-3.7853,-3.7862,-3.78,-3.7733,-3.7879,-3.7773,-3.7857,-3.7859,-3.789,-3.7889,-3.8169,-3.7901,-3.79,-3.79,-3.7899,0,-3.7992,-3.8059,-3.7967,-3.8007,-3.808,-3.8002,-3.8076,-3.8049,-3.8029,-3.8063,-3.7976,-3.801,-3.7926,-3.7952,-3.7905,-3.797,-3.7973,-3.7952,-3.7938,-3.7959,-3.7962,-3.7963,-3.7949,-3.7906,-3.7905,-3.7904,-3.7902,0,-3.8227,-3.8168,-3.8233,-3.8185,-3.8175,-3.8231,-3.819,-3.8226,-3.8187,-3.8231,-3.8237,-3.8175,-3.8201,-3.8141,-3.8158,-3.8126,-3.8219,-3.8187,-3.8225,-3.8215,-3.8301,-3.8293,-3.8591,-3.8626,-3.8337,-3.834,-3.8342,0,-3.8363,-3.8412,-3.837,-3.8386,-3.8373,-3.8401,-3.8409,-3.8335,-3.8348,-3.8332,-3.837,-3.8389,-3.8399,-3.8446,-3.8403,-3.8417,-3.8384,-3.8487,-3.8385,-3.8404,-3.8384,-3.8381,-3.8385,-3.8508,-3.8511,-3.8514,-3.8517,0,-3.861,-3.8579,-3.8594,-3.8601,-3.8613,-3.8615,-3.861,-3.8629,-3.8549,-3.8569,-3.8594,-3.8602,-3.862,-3.864,-3.8644,-3.8627,-3.856,-3.855,-3.8569,-3.859,-3.8609,-3.8599,-3.8281,-3.8542,-3.854,-3.8538,-3.8537,-3.8536,-3.8799,-3.8838,-3.8814,-3.8834,-3.8823,-3.8821,-3.8852,-3.8817,-3.8836,-3.8844,-3.88,-3.8835,-3.8816,-3.8814,-3.8805,-3.8832,-3.8785,-3.8814,-3.8821,-3.8829,-3.8843,-3.8607,-3.8833,-3.8832,-3.8832,-3.8831,-3.883,0,-3.904,-3.902,-3.904,-3.9036,-3.9053,-3.8987,-3.8979,-3.8997,-3.9029,-3.9017,-3.9029,-3.9059,-3.9078,-3.9038,-3.9051,-3.908,-3.905,-3.9086,-3.9083,-3.908,-3.8885,-3.8866,-3.9111,-3.9111,-3.9111,-3.9111,-3.9111,-3.9111,-3.9168,-3.923,-3.9196,-3.9253,-3.9232,-3.9265,-3.9266,-3.9264,-3.9254,-3.929,-3.9306,-3.9279,-3.9256,-3.9267,-3.9282,-3.927,-3.9279,-3.9326,-3.9303,-3.9121,-3.9094,-3.9067,-3.9049,-3.9329,-3.9329,-3.9496,-3.9497,-3.9498]},{"header":{"parameterUnit":"m.s-1","parameterCategory":1,"la1":30.2991,"la2":30.254,"lo1":-89.0895,"lo2":-89.0444,"dy":0.0017,"dx":0.0017,"nx":28,"ny":28,"refTime":"2025-09-01T09:00:00:Z","depth":0,"parameterNumber":3,"parameterNumberName":"V-component_of_WINDS"},"data":[0,0,0,0,0,0,0,0,0,0,0,0,0,0,0,0,0,0,0,0,0,0,0,0,0,0,0,0,0,0,0,0,0,0,0,0,0,0,0,0,0,0,0,0,0,0,0,0,0,0,0,0,0,0,0,0,0,0,1.7244,1.7244,0,1.7258,1.7258,1.7258,1.7298,1.7298,1.7299,1.73,1.7309,1.7309,1.7308,0,0,0,0,0,0,0,0,0,0,0,0,0,1.7247,1.7247,1.7244,1.7244,1.7244,1.7258,1.7258,1.7258,1.7297,1.7299,1.73,1.7301,1.7309,1.7309,1.7308,0,0,0,0,0,0,0,0,0,0,0,0,0,1.7252,1.7247,1.7244,1.7266,1.7268,1.7258,1.7258,1.7258,1.7297,1.7299,1.73,1.7301,1.731,1.7309,1.7308,1.7276,0,0,1.7305,1.7305,0,0,0,0,0,0,0,0,1.7252,1.7252,1.7262,1.7264,1.7266,1.7277,1.7263,1.7264,1.7297,1.7286,1.73,1.7302,1.7297,1.7297,1.7297,1.7277,1.7277,1.7305,1.7305,1.7304,1.7304,0,0,0,0,0,0,0,1.7251,1.7251,1.7249,1.7262,1.7265,1.7273,1.7275,1.7263,1.7284,1.7287,1.729,1.7291,1.7299,1.7298,1.7298,1.7277,1.7305,1.7304,1.7304,1.7304,1.7232,1.7231,0,0,0,0,0,0,1.7248,1.7251,1.7249,1.725,1.7262,1.7272,1.7275,1.7272,1.7284,1.7287,1.729,1.7293,1.7299,1.7298,1.7298,1.7261,1.7304,1.7304,1.7303,1.7234,1.7232,1.723,0,0,0,0,0,0,1.7248,1.7248,1.7248,1.7251,1.7252,1.7271,1.7268,1.7272,1.7271,1.7287,1.729,1.7286,1.73,1.7299,1.7282,1.7262,1.7303,1.7302,1.7235,1.7233,1.7231,1.7188,0,0,0,0,0,0,1.7248,1.7248,1.7236,1.7251,1.7252,1.7233,1.7267,1.7271,1.727,1.7274,1.7283,1.7286,1.7301,1.7283,1.7281,1.7262,1.7302,1.7237,1.7234,1.7232,1.7191,1.7185,1.7179,0,0,0,0,0,1.7248,1.7223,1.7236,1.7235,1.7238,1.7232,1.7232,1.7251,1.7269,1.7257,1.7267,1.7286,1.7265,1.7281,1.7279,1.7259,1.7238,1.7235,1.7232,1.7194,1.7186,1.718,0,0,0,0,0,0,1.7203,1.7225,1.7239,1.7218,1.7223,1.7238,1.7224,1.7242,1.724,1.7244,1.7266,1.7267,1.7247,1.7252,1.7268,1.723,1.7255,1.7251,1.7227,1.7219,1.7213,1.7212,1.7301,0,0,0,0,0,1.7192,1.7186,1.7204,1.7183,1.7185,1.7204,1.7202,1.7217,1.7222,1.7223,1.7232,1.7235,1.723,1.7225,1.7221,1.7193,1.7195,1.7179,1.7173,1.7168,1.7164,1.7149,1.7142,1.722,1.722,1.722,0,0,1.7166,1.7177,1.7171,1.7175,1.718,1.7172,1.7206,1.7196,1.719,1.7221,1.7206,1.7212,1.7217,1.7195,1.7185,1.7198,1.7143,1.7164,1.716,1.7158,1.7145,1.7138,1.7131,1.7218,1.7218,1.7219,0,0,1.7114,1.7123,1.7106,1.7112,1.7121,1.7134,1.713,1.7144,1.715,1.7135,1.7159,1.7152,1.7142,1.7144,1.7144,1.7096,1.7113,1.7094,1.7062,1.7047,1.7041,1.7036,1.7017,1.7011,1.7091,1.7091,1.709,0,1.708,1.7071,1.7095,1.7084,1.7085,1.7116,1.7099,1.7103,1.7108,1.7107,1.7123,1.7112,1.7117,1.7095,1.7084,1.7083,1.7079,1.7092,1.7041,1.7035,1.7031,1.7013,1.7007,1.7088,1.7088,1.7089,1.7089,0,1.7029,1.7022,1.7008,1.7015,1.7014,1.7,1.7021,1.7017,1.7032,1.7043,1.7028,1.7036,1.7034,1.7031,1.7044,1.7011,1.7019,1.7037,1.7062,1.702,1.7004,1.6998,1.7085,1.7085,1.7086,1.7087,0,0,1.6947,1.697,1.6964,1.6968,1.6981,1.6975,1.6963,1.6963,1.6959,1.6962,1.6951,1.6943,1.6961,1.6961,1.6976,1.6963,1.6924,1.6983,1.6984,1.6971,1.6886,1.6871,1.6863,1.6936,1.6935,1.6934,1.6886,0,1.6897,1.6878,1.69,1.6876,1.687,1.69,1.6889,1.6895,1.6906,1.6901,1.6913,1.6907,1.6931,1.6931,1.6921,1.6931,1.6907,1.6935,1.6924,1.6924,1.692,1.6855,1.6838,1.6792,1.688,1.6879,1.6878,0,1.6836,1.6839,1.6815,1.6831,1.6829,1.6819,1.6821,1.6817,1.6824,1.6833,1.6834,1.6853,1.6841,1.6868,1.685,1.6869,1.6866,1.6871,1.687,1.6867,1.6896,1.6849,1.6777,1.677,1.6869,1.6869,1.687,0,1.6777,1.6775,1.6761,1.6763,1.6781,1.6773,1.678,1.679,1.6789,1.6791,1.679,1.679,1.6789,1.6788,1.6806,1.6824,1.6785,1.6814,1.6791,1.679,1.6779,1.6779,1.6704,1.6781,1.6781,1.6781,1.6781,0,1.6718,1.6701,1.6734,1.6725,1.6707,1.6733,1.6714,1.6724,1.6733,1.6725,1.6752,1.6743,1.6769,1.6763,1.6777,1.676,1.676,1.6765,1.6769,1.6762,1.6761,1.6758,1.6761,1.6779,1.678,1.678,1.678,0,1.6648,1.6669,1.6655,1.6675,1.6679,1.6665,1.6681,1.6673,1.6687,1.6676,1.6675,1.6696,1.6691,1.671,1.6707,1.6717,1.6691,1.6701,1.6689,1.6691,1.6666,1.6667,1.6585,1.6575,1.666,1.6659,1.6658,0,1.6607,1.6596,1.6615,1.6613,1.6619,1.6615,1.6615,1.664,1.6638,1.6647,1.6637,1.6635,1.6634,1.6624,1.6638,1.6636,1.6645,1.6616,1.6644,1.6638,1.6642,1.6642,1.664,1.6609,1.6608,1.6607,1.6607,0,1.6533,1.6545,1.6545,1.6548,1.6548,1.6551,1.6557,1.6553,1.658,1.6577,1.6573,1.6573,1.6572,1.6568,1.657,1.6575,1.6595,1.6598,1.6593,1.6584,1.6577,1.6579,1.667,1.6599,1.66,1.6601,1.6601,1.6601,1.6476,1.6467,1.6479,1.6478,1.6485,1.649,1.6483,1.6497,1.6495,1.6497,1.6513,1.6505,1.6514,1.6519,1.6523,1.6517,1.653,1.6522,1.6519,1.6516,1.6511,1.658,1.6517,1.6518,1.6518,1.6518,1.6518,0,1.6402,1.6412,1.6411,1.6418,1.6417,1.6439,1.6447,1.6443,1.6438,1.6445,1.6445,1.644,1.6438,1.6452,1.6452,1.6444,1.6453,1.6442,1.6442,1.6443,1.65,1.6505,1.6435,1.6435,1.6435,1.6435,1.6435,1.6435,1.6363,1.6349,1.6363,1.6352,1.6363,1.6357,1.636,1.6364,1.637,1.6364,1.6363,1.6374,1.6384,1.6385,1.6383,1.6387,1.6385,1.6371,1.6378,1.6431,1.6439,1.6446,1.6451,1.6371,1.6371,1.6321,1.632,1.632]}]]